Home   Weather   Oldham   Past weeks

Flag for United Kingdom Past Weather in Oldham, England, United Kingdom — Yesterday and Last 2 Weeks

Now
50 °F

Passing clouds.


Feels Like: 45 °F
Forecast: 36 / 51 °F
Wind: 14 mph from West

Location: Manchester Airport

Current Time: Apr 27, 2017 at 8:04:44 pm

Latest Report: Apr 27, 2017 at 7:20 pm


Visibility: N/A

Pressure: 30.01 "Hg

Humidity: 76%

Dew Point: 43 °F

Location of OldhamLocation

Past Weather in Oldham — Graph

°F

Oldham Temperature Yesterday

Maximum temperature yesterday: 50 °F (at 3:20 pm)
Minimum temperature yesterday: 36 °F (at 2:50 am)
Average temperature yesterday: 42 °F

High & Low Weather Summary for the Past Weeks

 TemperatureHumidityPressure
High55 °F (Apr 14, 2:20 pm)100% (Apr 14, 9:50 am)30.63 "Hg (Apr 14, 9:50 am)
Low30 °F (Apr 25, 5:20 am)37% (Apr 24, 6:20 pm)29.89 "Hg (Apr 14, 5:20 pm)
Average47 °F74%30.22 "Hg
* Reported Apr 12 6:20 pm — Apr 27 6:50 pm, Oldham, Weather by CustomWeather, © 2017

Note: Actual official high and low records may vary slightly from our data, if they occured in-between our weather recording intervals... More about our weather records

Advertising

Oldham Weather History for the Previous 24 Hours

Scroll right to see more
 ConditionsComfort  
Time TempWeatherWind HumidityBarometerVisibility
6:50 pm
Thu, Apr 27
52 °FPartly sunny.16 mph67%30.01 "HgN/A
6:20 pm52 °FPartly sunny.15 mph67%30.01 "HgN/A
5:50 pm52 °FPartly sunny.14 mph62%30.01 "HgN/A
5:20 pm52 °FPartly sunny.14 mph62%30.01 "HgN/A
4:50 pm52 °FBroken clouds.16 mph62%30.01 "HgN/A
4:20 pm52 °FBroken clouds.15 mph62%30.01 "HgN/A
3:50 pm50 °FMostly cloudy.14 mph67%30.04 "HgN/A
3:20 pm50 °FMore clouds than sun.15 mph67%30.04 "HgN/A
2:50 pm48 °FMore clouds than sun.14 mph71%30.04 "HgN/A
2:20 pm48 °FLight rain. Broken clouds.17 mph71%30.04 "HgN/A
1:50 pm50 °FMostly cloudy.17 mph67%30.04 "HgN/A
1:20 pm50 °FBroken clouds.13 mph71%30.04 "HgN/A
12:50 pm50 °FMostly cloudy.16 mph71%30.04 "HgN/A
12:20 pm50 °FMostly cloudy.15 mph71%30.04 "HgN/A
11:50 am48 °FMostly cloudy.14 mph82%30.07 "HgN/A
11:20 am48 °FSprinkles. Broken clouds.16 mph76%30.07 "HgN/A
10:50 am46 °FPartly sunny.13 mph82%30.07 "HgN/A
10:20 am46 °FSleet. Partly sunny.13 mph82%30.07 "HgN/A
9:50 am46 °FOvercast.8 mph76%30.07 "HgN/A
9:20 am45 °FPartly sunny.6 mph81%30.07 "HgN/A
8:50 am41 °FBroken clouds.5 mph93%30.09 "HgN/A
8:20 am41 °FLight rain. Broken clouds.3 mph87%30.09 "HgN/A
7:50 am39 °FScattered clouds.3 mph87%30.09 "HgN/A
7:20 am37 °FLight rain. Broken clouds.3 mph87%30.09 "HgN/A
6:50 am36 °FPassing clouds.5 mph87%30.09 "HgN/A
6:20 am34 °FPassing clouds.5 mph93%30.09 "HgN/A
5:50 am34 °FChilly.3 mph87%30.09 "HgN/A
5:20 am32 °FChilly.3 mph93%30.09 "HgN/A
4:50 am32 °FChilly.3 mph93%30.12 "HgN/A
4:20 am32 °FChilly.3 mph93%30.12 "HgN/A
3:50 am30 °FChilly.5 mph93%30.12 "HgN/A
3:20 am32 °FChilly.5 mph87%30.12 "HgN/A
2:20 am34 °FChilly.5 mph93%30.12 "HgN/A
1:50 am32 °FChilly.3 mph87%30.12 "HgN/A
1:20 am32 °FChilly.2 mph87%30.12 "HgN/A
12:50 am34 °FChilly.1 mph87%30.15 "HgN/A
12:20 am36 °FChilly.1 mph81%30.15 "HgN/A
11:50 pm
Wed, Apr 26
36 °FChilly.2 mph81%30.15 "HgN/A
11:20 pm37 °FChilly.1 mph81%30.15 "HgN/A
10:50 pm39 °FChilly.1 mph75%30.15 "HgN/A
10:20 pm43 °FQuite cool.1 mph66%30.15 "HgN/A
9:50 pm41 °FQuite cool.2 mph70%30.15 "HgN/A
8:50 pm46 °FCool.7 mph50%30.12 "HgN/A
8:20 pm46 °FCool.9 mph50%30.12 "HgN/A
Weather by CustomWeather, © 2017

See weather overviewHow to use our weather pages